logo tempoitalia

Diretta Meteo Olbia-Costa Smeralda, Italiavenerdì 14 giugno ore 00:20

Mappa
Sereno 19 °C Sereno 24 Ore: T.min 18 T.max 27
Ponente Ovest/Sud-Ovest Km/h 29.6 Punto di rugiada: 8 °C Umidità: 48% Visibilità: 10 Km
Il sole sorge alle: 05:47 Il sole tramonta alle: 20:56
14 Giugno 2024 00:20 tempo osservato: Sereno Sereno 19 48 1019 vento: Nord O/SO 29.6
13 Giugno 2024 23:50 tempo osservato: Sereno Sereno 19 45 1019 vento: Nord O/SO 29.6
13 Giugno 2024 23:20 tempo osservato: Sereno Sereno 19 48 1019 vento: Nord O/SO 27.8
13 Giugno 2024 22:50 tempo osservato: Sereno Sereno 19 45 1019 vento: Nord O/SO 22.2
13 Giugno 2024 22:20 tempo osservato: Sereno Sereno 20 37 1019 vento: Nord O/SO 20.3
13 Giugno 2024 21:50 tempo osservato: Sereno Sereno 20 34 1019 vento: Nord O/SO 16.7
13 Giugno 2024 21:20 tempo osservato: Sereno Sereno 21 30 1019 vento: Nord O/SO 18.5
13 Giugno 2024 20:50 tempo osservato: Sereno Sereno 21 30 1019 vento: Nord O 14.8
13 Giugno 2024 20:20 tempo osservato: Sereno Sereno 22 28 1018 vento: Nord O 29.6
13 Giugno 2024 19:50 tempo osservato: Sereno Sereno 23 26 1018 vento: Nord O 37
13 Giugno 2024 19:20 tempo osservato: Sereno Sereno 23 28 1018 vento: Nord O 35.2
13 Giugno 2024 18:50 tempo osservato: Sereno Sereno 24 27 1018 vento: Nord O 35.2
13 Giugno 2024 18:20 tempo osservato: Sereno Sereno 25 27 1017 vento: Nord O 27.8
13 Giugno 2024 17:50 tempo osservato: Sereno Sereno 25 27 1017 vento: Nord O 33.3
13 Giugno 2024 17:20 tempo osservato: Sereno Sereno 25 27 1017 vento: Nord O 37
13 Giugno 2024 16:50 tempo osservato: Sereno Sereno 25 27 1017 vento: Nord O 37
13 Giugno 2024 16:20 tempo osservato: Sereno Sereno 26 25 1017 vento: Nord O/NO 35.2
13 Giugno 2024 15:50 tempo osservato: Sereno Sereno 26 25 1017 vento: Nord O 38.8
13 Giugno 2024 15:20 tempo osservato: Poco Nuvoloso Poco Nuvoloso 26 25 1017 vento: Nord O 38.8
13 Giugno 2024 14:50 tempo osservato: Poco Nuvoloso Poco Nuvoloso 26 24 1017 vento: Nord O 35.2
13 Giugno 2024 14:20 tempo osservato: Poco Nuvoloso Poco Nuvoloso 26 25 1017 vento: Nord O 35.2
13 Giugno 2024 13:50 tempo osservato: Poco Nuvoloso Poco Nuvoloso 26 25 1017 vento: Nord O/NO 42.6
13 Giugno 2024 13:20 tempo osservato: Poco Nuvoloso Poco Nuvoloso 27 26 1017 vento: Nord O 33.3
13 Giugno 2024 12:50 tempo osservato: Poco Nuvoloso Poco Nuvoloso 26 27 1017 vento: Nord O 37
13 Giugno 2024 12:20 tempo osservato: Poco Nuvoloso Poco Nuvoloso 26 29 1017 vento: Nord O 33.3
13 Giugno 2024 11:50 tempo osservato: Nuvoloso Nuvoloso 25 33 1017 vento: Nord O 33.3
13 Giugno 2024 11:20 tempo osservato: Nuvoloso Nuvoloso 25 31 1017 vento: Nord O 29.6
13 Giugno 2024 10:50 tempo osservato: Nuvoloso Nuvoloso 24 31 1017 vento: Nord O 31.5
13 Giugno 2024 10:20 tempo osservato: Nuvoloso Nuvoloso 25 36 1017 vento: Nord O/SO 31.5
13 Giugno 2024 09:50 tempo osservato: Poco Nuvoloso Poco Nuvoloso 24 41 1017 vento: Nord O 37
13 Giugno 2024 09:20 tempo osservato: Sereno Sereno 23 53 1017 vento: Nord SO 25.9
13 Giugno 2024 08:50 tempo osservato: Sereno Sereno 20 64 1017 vento: Nord SO 24
13 Giugno 2024 08:20 tempo osservato: Sereno Sereno 20 59 1017 vento: Nord SO 20.3
13 Giugno 2024 07:50 tempo osservato: Sereno Sereno 19 63 1017 vento: Nord SO 27.8
13 Giugno 2024 07:20 tempo osservato: Sereno Sereno 19 59 1016 vento: Nord O/SO 29.6
13 Giugno 2024 06:50 tempo osservato: Poco Nuvoloso Poco Nuvoloso 18 63 1016 vento: Nord SO 29.6
13 Giugno 2024 06:20 tempo osservato: Poco Nuvoloso Poco Nuvoloso 18 63 1016 vento: Nord O/SO 27.8
13 Giugno 2024 05:50 tempo osservato: Sereno Sereno 19 59 1016 vento: Nord SO 25.9
13 Giugno 2024 05:20 tempo osservato: Sereno Sereno 19 59 1015 vento: Nord O/SO 31.5
13 Giugno 2024 04:50 tempo osservato: Sereno Sereno 19 59 1015 vento: Nord O/SO 29.6
13 Giugno 2024 04:20 tempo osservato: Sereno Sereno 19 59 1016 vento: Nord O/SO 27.8
13 Giugno 2024 03:50 tempo osservato: Sereno Sereno 19 59 1016 vento: Nord SO 25.9
13 Giugno 2024 03:20 tempo osservato: Sereno Sereno 18 63 1016 vento: Nord SO 20.3
13 Giugno 2024 02:50 tempo osservato: Sereno Sereno 19 59 1016 vento: Nord SO 24
13 Giugno 2024 02:20 tempo osservato: Sereno Sereno 19 59 1016 vento: Nord O/SO 25.9
13 Giugno 2024 01:50 tempo osservato: Sereno Sereno 19 59 1016 vento: Nord O/SO 25.9
13 Giugno 2024 01:20 tempo osservato: Sereno Sereno 19 59 1016 vento: Nord O/SO 20.3
13 Giugno 2024 00:50 tempo osservato: Sereno Sereno 20 52 1016 vento: Nord O 18.5